Location: Mauries
(43.6188°N, 0.3322°W)
Time: 02:18:32
(UTC+00:00)

ACS3 Solar Sail - Visible Passes

Search period start: 06 March 2026 00:00
Search period end: 16 March 2026 00:00
Orbit: 889 x 972 km, 97.2° (Epoch: 5 March)

Date Brightness Start Highest point End Pass type
(mag) Time Alt. Az. Time Alt. Az. Time Alt. Az.
6 Mar 4.5 01:33:12 10° NNE 01:33:20 11° NNE 01:33:20 11° NNE visible
6 Mar 4.0 03:16:43 10° NNW 03:17:03 11° NNW 03:17:03 11° NNW visible
7 Mar 4.3 01:44:45 10° NNE 01:45:12 12° NNE 01:45:12 12° NNE visible
7 Mar 4.0 03:28:43 10° NNW 03:28:54 11° NNW 03:28:54 11° NNW visible
8 Mar 4.2 01:56:17 10° N 01:56:59 14° N 01:56:59 14° N visible
9 Mar 4.1 02:07:48 10° N 02:08:44 15° N 02:08:44 15° N visible
10 Mar 4.0 02:19:18 10° N 02:20:24 16° N 02:20:24 16° N visible
11 Mar 3.9 02:30:48 10° N 02:32:01 17° N 02:32:01 17° N visible
12 Mar 4.5 00:59:44 10° NNE 00:59:54 11° NNE 00:59:54 11° NNE visible
12 Mar 3.8 02:42:16 10° N 02:43:35 17° NNW 02:43:35 17° NNW visible
13 Mar 4.3 01:10:49 10° NNE 01:11:24 13° NNE 01:11:24 13° NNE visible
13 Mar 3.8 02:53:43 10° N 02:55:05 16° NNW 02:55:05 16° NNW visible
14 Mar 4.2 01:21:53 10° NNE 01:22:52 15° NNE 01:22:52 15° NNE visible
14 Mar 3.7 03:05:12 10° NNW 03:06:32 15° NNW 03:06:32 15° NNW visible
15 Mar 4.0 01:32:57 10° NNE 01:34:15 17° NNE 01:34:15 17° NNE visible
15 Mar 3.8 03:16:41 10° NNW 03:17:55 14° NNW 03:17:55 14° NNW visible
